Date,TemperatureHighF,TemperatureAvgF,TemperatureLowF,DewpointHighF,DewpointAvgF,DewpointLowF,HumidityHigh,HumidityAvg,HumidityLow,PressureMaxIn,PressureMinIn,WindSpeedMaxMPH,WindSpeedAvgMPH,GustSpeedMaxMPH,PrecipitationSumIn
2014-1-1,11.3,9.4,6.9,7.3,5.4,3.1,86,84,81,30.47,30.32,18,7,18,0.00
2014-1-2,8.1,3.3,-11.6,4.7,-2.2,-16.4,92,77,66,30.63,30.45,16,4,16,0.00
2014-1-3,31.5,12.4,-13.4,23.4,6.2,-18.0,92,76,69,30.60,29.80,30,12,30,0.00
2014-1-4,35.1,23.5,11.6,28.2,16.7,5.2,78,75,71,30.26,29.78,28,10,28,0.00
2014-1-5,11.6,3.3,-9.5,5.2,-6.0,-18.8,75,65,50,30.56,30.25,33,11,33,0.00
2014-1-6,-1.9,-7.3,-12.5,-10.5,-16.0,-21.4,72,65,60,30.60,30.49,26,7,26,0.00
2014-1-7,17.2,4.3,-7.5,7.1,-2.3,-13.2,80,73,62,30.50,30.25,11,2,11,0.00
2014-1-8,15.0,8.3,3.2,5.0,1.7,-2.4,80,74,63,30.61,30.40,10,2,10,0.00
2014-1-9,23.9,14.8,2.8,21.0,9.4,-2.7,92,79,75,30.59,30.15,13,3,13,0.00
2014-1-10,34.4,31.3,24.0,33.1,29.5,20.6,95,93,87,30.15,29.54,15,3,15,0.02
2014-1-11,35.9,29.9,22.5,31.4,26.7,20.1,95,88,74,29.86,29.55,23,4,23,0.00
2014-1-12,48.9,37.5,22.6,35.8,30.3,20.5,93,76,58,29.83,29.48,27,7,27,0.00
2014-1-13,41.3,36.0,29.0,34.4,29.5,24.1,84,77,62,29.79,29.58,18,5,19,0.00
2014-1-14,39.2,29.2,16.8,35.3,21.5,9.0,88,73,59,30.16,29.60,32,11,33,0.04
2014-1-15,29.4,20.2,11.7,19.7,11.0,5.5,77,68,56,30.23,29.71,26,9,26,0.00
2014-1-16,39.1,28.3,8.1,30.1,20.0,1.2,88,71,58,29.97,29.61,35,10,35,0.00
2014-1-17,21.2,11.6,6.3,12.0,4.9,-0.3,84,74,66,30.12,29.96,21,6,21,0.00
2014-1-18,38.7,24.3,8.5,34.0,19.0,4.4,92,80,67,30.06,29.57,29,7,30,0.02
2014-1-19,49.6,34.0,16.2,34.6,25.4,12.2,86,72,54,30.02,29.62,25,9,25,0.00
2014-1-20,42.7,30.9,10.4,33.6,25.9,5.2,92,82,67,30.32,29.79,32,6,32,0.01
2014-1-21,12.2,5.3,-3.4,5.8,-2.3,-9.7,80,70,63,30.51,30.14,26,5,26,0.00
2014-1-22,19.5,12.6,-2.5,13.1,4.7,-9.6,79,70,56,30.55,30.04,31,8,31,0.00
2014-1-23,7.8,-0.1,-7.2,-3.0,-7.8,-13.3,81,69,57,30.85,30.55,20,6,21,0.00
2014-1-24,40.4,24.2,3.3,35.5,10.9,-4.4,83,57,47,30.60,29.61,33,14,33,0.00
2014-1-25,40.1,24.8,16.8,35.3,8.0,-6.6,84,50,29,30.00,29.60,32,9,32,0.00
2014-1-26,46.9,31.6,3.4,33.4,19.2,-11.2,78,60,44,30.20,29.44,37,12,37,0.00
2014-1-27,8.1,1.6,-4.6,-7.0,-9.9,-13.5,75,58,45,30.57,30.20,29,6,29,0.00
2014-1-28,17.7,4.7,-6.0,-0.4,-5.7,-11.7,79,63,40,30.56,30.32,20,3,20,0.00
2014-1-29,38.6,21.5,1.6,16.2,6.9,-5.8,76,55,34,30.33,29.78,29,10,29,0.00
2014-1-30,45.1,28.8,10.2,29.0,16.2,2.3,76,60,47,30.10,29.52,35,14,35,0.00
2014-1-31,18.4,12.7,8.3,6.0,2.4,-0.4,76,63,51,30.26,30.05,15,4,16,0.00
2014-2-1,25.0,17.2,11.3,19.6,12.3,4.9,87,81,69,30.31,29.97,20,4,20,0.03
2014-2-2,17.0,6.9,-3.3,6.4,-0.1,-8.2,84,73,59,30.45,30.31,17,2,17,0.00
2014-2-3,27.2,12.9,-3.1,15.6,5.5,-7.2,92,73,57,30.41,30.32,16,4,16,0.00
2014-2-4,20.0,17.3,11.5,16.8,12.2,8.0,92,80,67,30.40,30.24,21,6,22,0.00
2014-2-5,11.4,5.4,-2.1,8.0,-0.3,-8.4,88,77,66,30.66,30.30,22,8,23,0.00
2014-2-6,10.1,0.2,-9.6,-1.2,-7.2,-14.3,80,71,58,30.65,30.50,16,4,18,0.00
2014-2-7,17.5,6.1,-8.7,5.3,-2.3,-13.8,82,69,51,30.50,30.29,19,5,23,0.00
2014-2-8,23.2,16.8,11.4,17.5,11.9,4.8,90,81,72,30.30,30.10,13,4,13,0.00
2014-2-9,16.0,5.7,-4.9,11.6,-0.3,-10.0,84,76,65,30.49,30.20,18,4,18,0.00
2014-2-10,5.7,-3.6,-13.2,-3.8,-9.9,-18.4,92,74,63,30.61,30.48,14,2,14,0.00
2014-2-11,16.3,3.0,-16.9,6.8,-4.6,-22.0,81,71,57,30.61,30.29,21,5,21,0.00
2014-2-12,25.1,18.2,13.2,17.9,11.8,4.3,86,76,66,30.29,29.95,16,5,16,0.01
2014-2-13,45.7,29.3,18.2,33.4,22.2,11.7,86,75,61,29.95,29.63,23,8,23,0.01
2014-2-14,18.6,14.2,4.1,11.7,8.2,-0.7,86,77,69,30.15,29.73,18,5,18,0.01
2014-2-15,31.6,13.4,-2.0,27.0,8.6,-5.9,92,81,67,30.15,29.89,22,5,22,0.00
2014-2-16,26.0,23.5,20.3,20.9,17.8,15.3,89,79,71,30.26,30.05,18,6,20,0.00
2014-2-17,44.9,32.4,23.4,34.0,25.6,18.0,91,77,55,30.06,29.79,23,5,23,0.14
2014-2-18,52.4,40.7,24.8,37.1,30.2,19.3,84,67,48,29.92,29.58,30,8,30,0.00
2014-2-19,48.7,38.8,26.6,37.7,32.4,24.2,93,78,61,29.95,29.70,17,4,17,0.10
2014-2-20,38.2,34.8,27.0,36.5,32.8,24.2,100,92,83,29.70,29.19,31,8,35,0.68
2014-2-21,38.8,29.3,22.3,26.1,20.6,14.4,89,70,56,29.90,29.58,21,7,30,0.07
2014-2-22,33.9,26.7,20.9,23.9,18.5,13.4,92,72,55,30.20,29.89,16,3,16,0.02
2014-2-23,28.2,21.7,17.0,15.1,12.5,9.2,80,68,51,30.39,30.20,18,4,18,0.00
2014-2-24,24.2,19.4,14.9,15.8,12.5,8.3,89,74,56,30.44,30.30,13,3,14,0.00
2014-2-25,14.9,9.8,3.3,11.2,2.7,-5.6,92,73,58,30.50,30.36,24,5,24,0.00
2014-2-26,25.4,11.7,-5.5,15.5,3.1,-10.1,82,68,56,30.50,29.88,29,9,29,0.00
2014-2-27,17.7,5.8,-1.7,9.3,-4.9,-10.6,71,61,49,30.28,29.99,22,6,27,0.01
2014-2-28,42.4,21.7,3.6,25.5,12.4,-3.8,86,68,48,30.14,29.87,25,7,25,0.00
2014-3-1,20.9,10.6,1.1,16.8,4.9,-4.5,84,77,74,30.54,30.12,20,8,20,0.00
2014-3-2,1.7,-1.8,-5.2,-4.2,-10.2,-13.4,76,67,57,30.66,30.52,20,7,21,0.00
2014-3-3,19.3,6.5,-8.1,6.7,-3.3,-14.0,76,64,49,30.64,30.32,18,4,18,0.01
2014-3-4,32.9,22.2,10.9,18.2,11.2,2.9,74,63,47,30.32,30.09,17,5,17,0.01
2014-3-5,25.6,22.7,20.6,20.4,17.5,14.5,89,80,73,30.40,30.18,19,8,19,0.00
2014-3-6,37.3,27.0,18.7,29.1,22.1,15.6,94,82,71,30.39,29.96,16,6,17,0.01
2014-3-7,47.7,35.4,28.0,39.1,29.8,23.5,92,80,70,30.11,29.84,19,8,19,0.00
2014-3-8,37.1,29.1,21.8,29.1,24.1,19.1,92,82,66,30.33,30.11,17,4,18,0.00
2014-3-9,55.7,38.7,20.3,39.2,29.6,17.8,91,72,52,30.32,29.81,30,10,30,0.00
2014-3-10,67.6,51.2,38.9,48.2,39.2,32.7,91,65,44,29.81,29.66,16,5,18,0.00
2014-3-11,47.3,40.9,36.5,38.8,35.5,28.7,91,81,65,29.92,29.57,33,8,33,0.00
2014-3-12,36.6,32.2,27.2,29.2,22.6,17.4,81,68,49,30.14,29.91,21,7,25,0.00
2014-3-13,63.3,44.5,25.5,37.3,30.0,21.2,87,60,33,30.12,29.70,22,8,22,0.00
2014-3-14,53.8,46.6,32.2,35.0,30.3,25.8,83,54,40,29.96,29.60,28,8,28,0.00
2014-3-15,49.7,36.3,26.1,30.5,27.2,23.3,95,72,42,30.21,29.95,27,7,27,0.00
2014-3-16,31.2,27.0,19.1,28.4,19.0,13.4,95,73,48,30.38,30.14,20,7,20,0.00
2014-3-17,44.4,31.4,19.6,24.8,19.4,14.0,82,63,40,30.14,29.61,24,10,24,0.00
2014-3-18,52.4,41.8,33.4,39.5,31.7,22.4,91,68,55,29.64,29.51,20,5,22,0.03
2014-3-19,41.1,35.3,28.4,38.5,29.5,24.7,93,80,60,30.06,29.58,26,6,26,0.01
2014-3-20,55.0,39.8,23.7,35.2,28.7,20.4,91,67,38,30.07,29.89,15,3,15,0.00
2014-3-21,58.7,42.1,31.7,38.2,32.1,25.1,88,69,39,30.12,29.77,27,6,27,0.00
2014-3-22,33.4,27.1,21.5,25.8,16.2,11.4,80,64,42,30.50,30.13,24,8,24,0.00
2014-3-23,32.4,24.0,14.2,16.5,11.2,7.5,81,59,39,30.57,30.39,18,4,18,0.00
2014-3-24,37.3,28.7,22.5,30.9,22.8,14.4,89,79,61,30.42,30.17,15,4,15,0.02
2014-3-25,31.5,24.8,19.4,22.3,13.6,8.0,85,64,38,30.38,30.19,25,6,25,0.00
2014-3-26,50.7,36.0,19.1,38.5,19.8,11.8,89,55,30,30.26,29.76,40,12,40,0.00
2014-3-27,54.4,44.2,36.7,51.0,41.8,34.3,95,91,86,29.76,29.25,32,12,32,0.07
2014-3-28,37.7,35.2,32.6,34.2,31.1,28.9,91,85,78,30.22,29.66,24,4,24,0.00
2014-3-29,52.9,40.2,28.8,32.3,29.5,26.5,93,68,43,30.29,30.17,14,3,14,0.00
2014-3-30,69.3,52.7,36.8,36.3,32.8,29.6,81,51,26,30.19,29.80,33,12,33,0.00
2014-3-31,72.3,54.8,31.1,48.4,37.9,19.1,81,54,37,29.80,29.39,37,13,37,0.05
2014-4-1,46.2,35.0,22.8,26.7,20.8,13.5,69,56,44,30.11,29.77,36,7,36,0.00
2014-4-2,47.7,40.7,30.1,37.6,30.9,25.0,88,69,55,30.11,29.84,21,8,21,0.00
2014-4-3,46.0,41.5,37.3,44.1,39.6,35.6,97,93,77,29.85,29.52,24,8,24,0.05
2014-4-4,40.9,36.0,31.1,39.3,30.3,26.5,97,80,63,30.15,29.52,33,9,33,0.05
2014-4-5,56.2,41.4,23.5,32.7,27.9,21.9,96,64,30,30.22,30.05,15,4,16,0.00
2014-4-6,62.4,51.1,39.5,40.0,34.9,29.5,71,55,39,30.06,29.85,16,4,16,0.00
2014-4-7,63.9,50.2,36.6,43.9,37.5,32.0,85,64,37,29.85,29.69,22,3,27,0.00
2014-4-8,56.2,46.2,36.2,39.8,33.7,25.8,87,64,39,30.04,29.79,24,6,25,0.00
2014-4-9,72.0,52.4,27.8,38.4,31.9,26.2,96,54,22,30.05,29.67,31,9,31,0.00
2014-4-10,65.8,57.6,43.1,42.4,34.6,24.6,65,44,23,29.98,29.57,23,7,23,0.00
2014-4-11,76.1,57.8,36.4,41.1,34.9,28.5,87,47,23,30.02,29.86,24,5,24,0.00
2014-4-12,84.7,69.4,56.9,62.2,52.0,35.6,88,55,42,29.88,29.43,26,8,26,0.12
2014-4-13,59.9,51.6,38.6,56.7,49.5,36.1,95,92,88,29.67,29.41,37,8,37,2.40
2014-4-14,39.7,34.1,28.8,36.0,27.0,19.9,93,76,55,30.15,29.66,29,10,29,0.10
2014-4-15,44.9,35.0,25.3,26.8,22.8,18.8,79,62,42,30.23,30.03,17,4,17,0.00
2014-4-16,63.2,50.5,37.8,40.0,34.2,26.3,77,55,40,30.03,29.78,40,14,40,0.00
2014-4-17,52.9,41.8,34.6,39.1,33.1,29.4,84,72,52,30.29,29.93,22,5,23,0.00
2014-4-18,63.6,47.4,29.1,41.8,34.5,26.3,92,64,37,30.37,30.17,17,4,17,0.00
2014-4-19,77.1,60.4,44.3,52.0,43.2,32.8,75,54,40,30.19,30.01,26,8,26,0.00
2014-4-20,81.7,68.2,56.3,58.7,51.0,44.2,69,55,43,30.05,29.88,26,9,26,0.00
2014-4-21,73.2,63.2,51.4,64.3,53.9,39.0,95,74,37,30.00,29.85,26,6,26,0.51
2014-4-22,65.8,53.0,37.3,42.3,36.8,31.8,82,56,35,30.11,29.98,19,5,19,0.00
2014-4-23,51.4,48.2,45.1,41.7,38.5,33.9,83,69,57,30.08,29.76,24,7,24,0.17
2014-4-24,54.4,50.0,46.2,51.9,45.4,38.5,94,85,63,29.81,29.57,22,5,22,1.05
2014-4-25,76.5,58.3,39.9,50.5,44.4,38.2,96,65,30,29.84,29.72,22,3,23,0.00
2014-4-26,74.2,61.2,47.2,53.9,46.9,39.9,77,60,46,29.82,29.64,27,8,27,0.08
2014-4-27,71.3,55.0,44.0,58.9,48.7,36.6,93,80,63,29.71,29.36,39,12,39,1.21
2014-4-28,65.8,58.5,51.8,61.6,54.9,46.7,95,88,72,29.45,29.22,26,8,26,0.33
2014-4-29,51.7,47.2,38.0,49.2,45.0,35.7,94,92,86,29.71,29.34,18,4,19,0.03
2014-4-30,45.0,41.1,37.8,40.6,37.8,34.0,92,88,81,29.82,29.71,19,6,19,0.18
2014-5-1,48.1,44.6,41.9,42.5,40.3,38.6,92,85,78,29.92,29.77,19,5,21,0.01
2014-5-2,66.2,54.4,45.0,46.5,42.6,40.3,87,66,44,29.91,29.67,25,6,25,0.00
2014-5-3,70.5,56.6,44.2,49.3,43.7,38.8,85,65,36,29.93,29.76,19,3,19,0.01
2014-5-4,65.0,54.6,44.7,46.5,43.1,39.2,92,66,49,30.03,29.82,22,7,22,0.00
2014-5-5,69.3,57.0,44.7,49.3,40.4,31.0,68,54,44,29.85,29.78,21,8,21,0.00
2014-5-6,75.8,61.5,46.0,56.1,46.2,36.8,72,58,45,29.85,29.56,26,9,26,0.00
2014-5-7,86.0,72.5,55.5,69.6,60.0,46.0,83,66,53,29.61,29.52,25,9,25,0.00
2014-5-8,78.0,72.6,65.2,66.3,63.8,59.2,86,74,64,29.68,29.56,36,11,36,0.02
2014-5-9,66.1,57.2,50.3,61.1,47.1,43.1,88,70,47,29.83,29.60,23,5,23,0.00
2014-5-10,80.2,65.1,50.9,56.0,49.9,44.3,87,61,31,29.88,29.69,23,6,23,0.00
2014-5-11,75.0,65.0,55.1,67.4,60.7,52.5,95,86,70,29.84,29.63,25,4,25,0.28
2014-5-12,72.5,63.3,51.0,68.1,60.5,46.7,95,91,78,29.91,29.60,38,6,38,0.95
2014-5-13,59.6,51.3,45.3,48.3,43.7,39.9,87,76,55,30.22,29.88,21,5,21,0.00
2014-5-14,59.2,50.5,40.3,44.8,40.5,37.3,91,70,49,30.26,30.07,13,1,13,0.00
2014-5-15,54.3,46.4,40.6,45.0,40.5,36.5,92,80,66,30.09,30.03,22,5,22,0.19
2014-5-16,55.9,45.4,36.4,41.8,35.3,32.3,87,69,45,30.11,30.04,13,3,14,0.01
2014-5-17,63.2,51.6,36.4,40.7,36.5,29.3,91,60,33,30.15,30.09,17,3,17,0.00
2014-5-18,69.7,59.2,46.7,49.1,43.3,37.5,77,57,38,30.17,29.99,23,8,23,0.00
2014-5-19,74.2,66.2,56.2,61.6,53.9,42.7,71,65,55,30.02,29.67,35,9,35,0.00
2014-5-20,82.7,73.0,61.8,69.5,64.1,57.6,89,74,61,29.79,29.70,16,4,16,0.04
2014-5-21,82.8,71.3,61.6,67.4,60.1,50.1,97,71,43,30.02,29.75,18,4,18,0.58
2014-5-22,73.0,61.2,52.7,58.3,52.3,48.6,89,74,46,30.22,30.01,16,2,16,0.01
2014-5-23,78.2,65.3,50.9,56.0,50.6,46.0,93,62,34,30.17,30.05,13,2,13,0.00
2014-5-24,78.2,65.8,53.3,60.7,53.3,46.9,80,65,46,30.12,30.00,13,3,13,0.00
2014-5-25,80.5,67.6,60.1,71.6,62.4,54.5,94,84,71,30.02,29.88,19,3,19,0.39
2014-5-26,78.2,70.2,64.8,71.1,66.9,63.0,96,90,75,29.95,29.84,15,3,15,0.11
2014-5-27,83.5,71.2,64.4,71.8,65.5,60.3,94,83,57,29.91,29.83,15,3,15,0.00
2014-5-28,82.3,71.7,60.3,71.2,65.4,58.7,97,82,64,29.93,29.86,16,3,16,0.00
2014-5-29,84.0,73.5,62.6,73.3,65.2,58.3,88,76,60,30.00,29.91,17,4,17,0.00
2014-5-30,87.2,76.3,66.5,72.5,67.9,64.0,93,76,54,30.04,29.94,14,2,16,0.00
2014-5-31,84.9,74.4,69.0,74.3,69.2,65.6,93,84,64,30.03,29.89,29,3,32,0.20
2014-6-1,85.5,76.3,67.7,74.0,69.7,65.6,93,81,62,29.91,29.68,27,9,27,0.08
2014-6-2,82.0,75.3,64.8,70.4,64.9,59.8,94,71,54,29.87,29.77,23,7,23,0.06
2014-6-3,80.3,69.8,58.5,66.0,60.9,55.5,93,75,54,29.97,29.77,13,2,13,0.64
2014-6-4,78.8,69.6,63.3,69.2,64.6,59.7,94,85,66,29.85,29.46,32,4,32,0.23
2014-6-5,74.4,66.3,59.0,64.8,60.4,56.9,93,82,67,29.93,29.80,17,3,17,0.00
2014-6-6,82.3,71.2,59.0,70.4,64.4,57.5,96,80,56,29.93,29.82,11,2,11,0.00
2014-6-7,69.9,66.1,59.8,67.0,63.5,58.2,95,91,82,29.93,29.79,14,2,14,0.40
2014-6-8,71.3,63.4,59.0,62.7,58.9,56.8,96,86,70,30.04,29.92,12,2,13,0.00
2014-6-9,75.4,66.6,57.3,63.5,58.3,54.6,95,76,56,29.96,29.80,15,3,15,0.00
2014-6-10,71.2,65.3,61.7,62.1,58.3,53.5,88,78,63,29.84,29.77,19,4,19,0.03
2014-6-11,82.0,70.4,57.1,64.8,59.3,53.5,91,70,46,29.78,29.69,13,3,14,0.00
2014-6-12,76.0,68.5,57.8,62.7,56.3,46.3,85,66,47,29.95,29.71,19,5,19,0.00
2014-6-13,75.7,63.6,47.4,52.8,48.2,43.2,92,60,35,30.06,29.91,13,2,13,0.00
2014-6-14,80.4,70.0,57.6,64.3,56.6,50.2,78,63,53,29.95,29.68,30,9,30,0.00
2014-6-15,80.9,73.6,69.2,69.4,62.8,57.3,80,69,53,29.88,29.53,32,9,32,0.00
2014-6-16,87.3,75.9,62.9,75.9,68.7,60.2,93,79,61,29.94,29.65,31,6,31,0.00
2014-6-17,87.0,75.9,62.7,77.2,69.3,59.6,94,81,69,29.89,29.69,33,8,33,0.66
2014-6-18,87.7,79.3,68.4,78.8,73.6,64.8,91,83,72,29.83,29.73,24,7,24,0.00
2014-6-19,80.9,74.0,67.2,74.3,70.3,65.6,95,88,79,29.92,29.79,26,4,26,1.59
2014-6-20,87.2,75.6,63.3,75.8,67.6,62.0,97,79,44,29.95,29.84,9,2,11,0.00
2014-6-21,84.0,76.3,69.3,72.2,67.7,63.3,90,75,58,29.90,29.78,17,3,17,0.02
2014-6-22,78.0,71.7,67.6,74.0,68.2,64.8,93,89,81,29.83,29.71,16,2,16,0.14
2014-6-23,80.1,73.1,66.4,72.2,68.3,64.4,96,85,72,29.86,29.76,16,1,16,0.22
2014-6-24,83.0,72.0,62.1,70.9,65.2,60.7,96,81,56,29.92,29.85,12,1,12,0.01
2014-6-25,85.5,74.4,62.2,70.1,64.9,59.8,94,74,46,29.97,29.89,12,1,12,0.00
2014-6-26,77.3,72.9,67.2,72.7,69.1,64.1,94,88,77,29.95,29.80,15,2,18,0.28
2014-6-27,81.3,74.2,68.9,75.7,70.9,66.6,94,90,82,29.84,29.72,26,4,26,0.12
2014-6-28,83.6,74.8,68.3,76.1,70.7,65.6,95,87,74,29.81,29.68,37,9,40,0.49
2014-6-29,82.0,73.6,65.5,76.9,70.7,63.1,95,91,82,29.88,29.69,40,7,40,0.54
2014-6-30,81.2,71.5,64.3,78.2,69.5,62.8,96,93,81,29.76,29.52,34,3,35,2.64
2014-7-1,78.7,69.5,63.0,67.2,62.5,56.6,96,79,61,29.87,29.67,22,6,24,0.01
2014-7-2,64.3,60.5,55.6,58.2,55.2,51.4,91,83,75,30.07,29.86,19,3,19,0.00
2014-7-3,76.8,64.8,53.8,62.9,56.4,52.0,95,76,50,30.18,30.07,15,2,15,0.01
2014-7-4,78.0,67.3,53.7,64.6,58.9,51.9,95,76,56,30.26,30.14,13,2,13,0.00
2014-7-5,76.0,68.0,61.9,71.4,64.2,58.3,95,88,76,30.15,29.92,21,5,21,1.95
2014-7-6,85.0,77.5,68.8,77.2,72.8,66.6,95,86,76,29.92,29.67,26,8,26,0.00
2014-7-7,85.8,76.7,66.7,76.0,70.1,64.1,95,81,58,29.77,29.63,14,2,15,0.00
2014-7-8,79.3,72.4,65.9,66.8,63.5,61.4,89,74,57,29.87,29.65,18,3,19,0.00
2014-7-9,78.5,69.5,58.7,66.2,61.0,55.7,92,76,55,30.00,29.86,10,1,11,0.00
2014-7-10,80.8,72.2,63.4,67.8,62.7,59.4,88,73,55,30.07,29.98,16,5,16,0.00
2014-7-11,77.3,71.0,65.2,73.2,66.2,59.0,94,85,75,30.06,29.89,19,2,19,0.01
2014-7-12,89.3,76.2,67.4,80.3,72.4,65.9,96,89,65,29.98,29.80,37,2,38,0.47
2014-7-13,84.8,73.3,65.7,75.2,69.1,64.2,97,88,63,29.96,29.86,18,2,18,0.00
2014-7-14,76.3,68.5,57.4,68.1,59.1,49.6,95,74,49,30.00,29.84,27,3,27,0.01
2014-7-15,72.4,61.6,53.3,61.0,53.8,50.4,90,77,57,30.06,29.98,13,3,15,0.00
2014-7-16,74.5,63.9,52.9,61.0,55.2,50.5,94,75,49,30.04,29.98,11,1,11,0.00
2014-7-17,77.0,66.8,56.0,62.9,58.6,54.2,96,77,52,30.05,30.00,10,1,10,0.00
2014-7-18,77.5,68.0,59.7,66.4,61.6,56.8,92,80,60,30.07,29.96,14,2,14,0.00
2014-7-19,79.7,72.4,65.9,67.8,63.7,59.3,84,75,62,30.00,29.90,17,6,17,0.00
2014-7-20,81.8,73.8,65.5,70.2,66.4,62.0,89,78,65,29.95,29.84,22,7,22,0.00
2014-7-21,88.5,78.9,68.9,79.6,73.0,65.7,90,82,72,29.90,29.82,17,7,21,0.00
2014-7-22,90.5,80.7,71.3,83.0,75.7,67.6,90,85,73,30.02,29.79,23,5,23,0.00
2014-7-23,79.6,70.0,63.0,68.2,63.5,58.8,92,81,55,30.14,30.02,17,2,17,0.00
2014-7-24,79.2,69.0,57.9,66.0,62.1,56.2,95,80,59,30.12,29.81,26,3,26,0.00
2014-7-25,80.0,70.0,61.8,73.5,65.5,59.2,93,86,76,29.97,29.71,31,6,31,0.48
2014-7-26,82.1,74.2,66.2,75.6,70.4,64.7,95,88,77,29.81,29.72,15,2,15,0.00
2014-7-27,78.2,71.8,64.6,70.7,64.1,59.3,96,78,59,30.01,29.79,26,4,26,0.00
2014-7-28,75.0,66.1,58.5,63.9,59.6,56.6,95,81,60,30.16,30.01,14,2,14,0.05
2014-7-29,78.7,66.8,55.4,65.7,59.5,54.1,96,79,54,30.12,30.01,13,1,13,0.01
2014-7-30,79.8,67.9,55.8,66.1,60.4,54.1,95,79,54,30.07,30.00,12,1,12,0.00
2014-7-31,81.1,69.6,57.4,68.2,61.4,55.7,96,77,49,30.05,29.97,9,2,11,0.00
2014-8-1,82.7,70.9,60.0,68.6,63.0,58.2,95,78,55,30.05,29.99,10,1,10,0.00
2014-8-2,83.3,71.6,58.3,69.0,63.4,56.8,96,77,45,30.12,30.03,10,1,10,0.00
2014-8-3,88.5,76.7,67.4,69.9,66.1,63.1,89,71,47,30.10,29.97,13,2,13,0.00
2014-8-4,89.2,77.4,67.1,71.8,68.4,65.3,95,76,52,30.01,29.91,13,2,13,0.00
2014-8-5,80.3,71.1,62.9,71.5,67.0,61.8,96,87,69,30.03,29.93,7,1,7,0.00
2014-8-6,72.5,68.6,65.5,67.9,66.5,63.9,96,93,83,30.02,29.91,17,2,17,0.83
2014-8-7,72.0,68.7,66.2,68.2,66.5,64.7,96,93,86,29.94,29.89,17,4,17,0.14
2014-8-8,79.5,71.0,63.1,70.1,66.0,61.7,97,85,70,29.98,29.92,15,3,15,0.00
2014-8-9,80.8,71.3,63.3,69.0,65.2,61.5,95,82,63,30.01,29.95,11,2,11,0.00
2014-8-10,78.7,70.8,63.3,70.6,66.0,60.7,93,85,69,30.01,29.93,7,1,7,0.00
2014-8-11,79.4,70.3,63.1,69.3,64.7,58.8,95,83,62,29.96,29.91,18,3,18,0.00
2014-8-12,78.2,66.1,55.5,64.5,58.3,53.1,93,77,53,30.03,29.95,17,2,17,0.00
2014-8-13,81.0,67.6,55.1,66.0,60.0,53.1,95,78,53,30.09,30.00,14,1,14,0.00
2014-8-14,80.3,70.5,58.0,69.6,64.0,56.6,96,81,60,30.05,29.93,6,0,10,0.00
2014-8-15,71.8,68.8,65.8,68.6,65.9,63.7,94,91,83,29.97,29.83,13,2,16,0.07
2014-8-16,76.3,70.2,66.2,70.3,67.3,64.1,96,91,80,29.86,29.78,13,3,13,0.02
2014-8-17,85.0,72.2,60.8,72.9,67.3,60.2,98,86,63,29.93,29.83,10,1,10,0.00
2014-8-18,85.5,76.2,65.9,75.0,70.5,64.7,97,83,68,29.90,29.67,16,6,16,0.01
2014-8-19,86.1,76.5,67.2,71.6,68.6,64.5,97,79,51,29.76,29.64,13,2,14,0.00
2014-8-20,83.9,73.4,66.9,75.8,70.0,65.1,98,90,69,29.89,29.73,16,3,16,0.23
2014-8-21,87.9,79.6,73.0,79.2,74.7,70.4,96,86,72,29.86,29.74,24,4,24,0.28
2014-8-22,91.4,81.3,72.3,81.1,76.3,70.4,96,85,67,29.86,29.76,15,2,17,0.03
2014-8-23,87.3,77.8,70.9,78.7,74.3,69.6,98,90,73,29.92,29.77,32,3,32,2.62
2014-8-24,93.3,81.8,71.9,79.6,75.1,70.5,98,81,60,29.83,29.77,14,4,14,0.00
2014-8-25,89.5,81.1,73.3,80.8,75.7,68.5,93,84,72,29.96,29.80,14,2,14,0.00
2014-8-26,79.7,71.9,65.9,70.0,66.3,63.1,94,83,63,30.12,29.93,22,2,22,0.00
2014-8-27,76.2,69.6,64.9,70.2,66.2,62.7,94,89,81,30.12,30.00,9,1,9,0.00
2014-8-28,76.8,70.3,66.3,73.1,67.8,64.0,96,92,87,30.03,29.83,14,2,14,0.46
2014-8-29,87.5,73.3,67.1,75.4,69.3,64.4,97,88,63,29.89,29.70,28,4,28,0.53
2014-8-30,84.8,72.7,65.4,72.4,67.8,64.3,97,86,62,29.84,29.72,21,3,21,0.21
2014-8-31,88.6,75.8,64.3,75.9,69.9,63.4,98,83,58,29.83,29.61,41,6,41,1.20
2014-9-1,81.2,71.8,65.4,69.3,66.1,63.6,97,83,60,29.83,29.56,24,6,24,0.13
2014-9-2,78.5,69.6,60.6,68.1,63.6,59.4,97,82,60,29.92,29.81,12,2,13,0.05
2014-9-3,83.5,73.2,61.8,74.8,68.0,60.3,96,84,70,29.92,29.73,22,6,23,0.03
2014-9-4,90.2,81.4,73.5,78.9,74.3,69.4,91,80,66,29.83,29.71,24,9,26,0.04
2014-9-5,78.3,65.6,55.6,73.2,61.6,53.6,94,87,73,30.17,29.82,16,3,18,0.02
2014-9-6,73.7,61.0,49.7,60.8,54.4,48.0,95,81,54,30.24,30.16,11,1,12,0.02
2014-9-7,74.5,62.9,51.2,62.4,56.2,50.1,97,80,56,30.19,30.03,16,2,16,0.04
2014-9-8,76.3,66.6,57.1,67.4,60.8,53.1,90,82,68,30.05,29.76,23,4,23,0.04
2014-9-9,72.2,69.1,65.8,67.8,66.2,64.2,96,91,85,29.83,29.58,23,5,23,2.53
2014-9-10,71.3,64.4,52.7,67.8,61.4,48.5,97,90,83,30.00,29.44,18,5,20,0.96
2014-9-11,56.4,52.3,48.5,50.5,47.7,44.8,89,84,77,30.30,30.00,16,4,17,0.01
2014-9-12,51.9,48.6,42.6,47.8,44.7,39.9,92,86,77,30.40,30.28,19,4,20,0.11
2014-9-13,59.9,49.3,38.9,47.7,42.5,37.2,95,79,52,30.40,30.24,15,2,15,0.01
2014-9-14,68.8,58.5,47.7,55.9,50.6,44.6,92,76,58,30.26,30.08,14,4,15,0.00
2014-9-15,62.7,58.0,47.4,59.8,53.2,44.0,95,84,73,30.21,30.00,17,2,18,0.21
2014-9-16,66.1,54.1,41.6,54.0,47.5,39.7,95,80,57,30.23,30.02,6,1,9,0.00
2014-9-17,73.9,61.4,51.8,63.8,55.8,48.7,92,83,60,30.03,29.87,11,2,12,0.00
2014-9-18,72.3,61.0,50.9,60.3,55.0,49.5,96,82,54,30.06,29.96,16,2,17,0.00
2014-9-19,75.8,65.7,54.9,66.7,60.4,52.0,92,83,71,30.01,29.78,26,8,26,0.00
2014-9-20,80.9,72.0,63.1,72.2,66.5,54.8,95,84,65,29.92,29.76,21,6,22,0.09
2014-9-21,70.9,60.9,51.2,56.8,52.3,47.8,89,74,56,30.20,29.92,20,4,21,0.00
2014-9-22,70.8,58.0,45.6,57.1,51.0,43.4,95,79,50,30.30,30.18,8,1,9,0.00
2014-9-23,71.3,61.9,53.2,58.6,54.1,50.1,90,76,59,30.25,30.13,15,3,17,0.00
2014-9-24,65.3,62.2,60.1,59.5,56.3,53.3,88,81,75,30.21,30.14,13,1,13,0.08
2014-9-25,77.1,67.0,60.4,64.2,59.6,57.2,90,78,56,30.19,30.09,11,1,11,0.00
2014-9-26,80.3,69.8,60.8,66.7,61.8,56.7,88,76,58,30.14,30.06,13,2,14,0.00
2014-9-27,81.3,70.0,61.3,68.1,62.0,58.3,92,77,54,30.14,30.02,14,2,15,0.01
2014-9-28,84.3,68.5,55.7,67.1,60.4,54.8,98,79,44,30.11,30.00,8,1,8,0.00
2014-9-29,82.9,68.3,54.7,65.3,60.3,53.9,98,78,48,30.02,29.89,12,2,13,0.00
2014-9-30,72.2,61.5,55.5,61.0,57.0,53.7,95,86,65,29.95,29.80,13,3,14,0.00
2014-10-1,71.1,62.8,55.4,65.3,59.7,53.3,97,90,81,29.81,29.69,20,3,20,0.38
2014-10-2,67.7,63.3,55.4,65.4,61.8,52.5,98,95,89,29.76,29.61,20,4,21,0.17
2014-10-3,55.4,47.9,40.7,52.7,38.3,25.8,97,70,49,29.99,29.69,28,6,32,0.01
2014-10-4,52.2,43.1,35.9,35.7,30.4,24.8,84,62,45,29.94,29.78,23,5,23,0.00
2014-10-5,65.2,52.5,39.9,45.6,40.3,35.4,86,65,41,29.78,29.60,16,3,17,0.00
2014-10-6,64.3,55.5,47.8,49.5,43.9,34.6,93,67,43,29.67,29.59,23,5,24,0.00
2014-10-7,68.9,59.0,47.5,50.0,45.3,38.6,83,63,35,29.91,29.59,24,4,24,0.00
2014-10-8,70.5,55.6,39.5,51.3,42.4,34.3,95,66,31,30.09,29.91,15,2,15,0.08
2014-10-9,64.5,54.5,49.0,50.2,45.6,35.5,96,74,48,30.13,30.02,13,3,13,0.42
2014-10-10,55.0,47.5,39.7,42.5,37.4,35.3,86,69,49,30.21,30.11,15,3,15,0.00
2014-10-11,62.2,47.8,33.6,43.9,38.0,31.8,94,71,45,30.25,30.03,9,2,11,0.00
2014-10-12,52.8,48.1,40.0,51.5,45.2,36.5,97,90,78,30.03,29.77,13,2,13,0.01
2014-10-13,55.3,53.4,51.7,54.5,52.5,50.4,98,97,95,29.79,29.47,27,5,29,2.45
2014-10-14,55.7,52.4,50.2,51.0,49.1,44.4,96,89,78,29.84,29.47,32,9,32,0.64
2014-10-15,68.5,53.4,41.7,46.5,40.9,37.1,85,65,36,29.92,29.84,22,3,22,0.10
2014-10-16,73.0,55.6,40.9,54.9,46.3,37.3,94,73,46,29.86,29.63,21,3,21,0.01
2014-10-17,61.1,54.6,48.1,49.1,45.3,41.8,80,71,61,30.04,29.68,27,5,28,0.46
2014-10-18,56.6,47.5,40.1,47.3,41.5,36.9,91,80,64,30.22,30.04,16,2,17,0.00
2014-10-19,64.3,52.0,40.7,51.4,45.3,38.2,98,79,59,30.17,29.88,21,8,21,0.00
2014-10-20,70.5,56.3,43.6,52.9,45.8,40.0,91,70,43,30.01,29.87,20,2,20,0.00
2014-10-21,64.2,51.1,39.1,51.1,43.2,36.5,92,75,55,30.17,30.00,13,2,13,0.00
2014-10-22,64.2,52.0,41.0,50.5,43.8,37.7,94,74,59,30.25,30.08,19,5,19,0.00
2014-10-23,65.2,56.3,51.2,59.5,51.1,44.5,92,83,72,30.09,29.97,12,3,12,0.00
2014-10-24,64.0,58.1,50.7,60.9,56.2,48.8,97,93,88,30.01,29.86,19,5,19,0.01
2014-10-25,72.9,57.4,46.7,52.4,45.9,38.8,96,70,36,30.06,29.92,14,1,14,0.01
2014-10-26,70.6,56.9,44.3,51.7,42.7,35.8,78,61,41,30.02,29.57,19,4,19,0.00
2014-10-27,76.8,65.2,54.2,62.8,56.5,48.1,88,74,59,29.79,29.46,20,6,20,0.00
2014-10-28,54.1,49.0,41.6,47.9,38.6,33.6,80,68,55,30.07,29.78,26,5,26,0.00
2014-10-29,52.8,44.6,38.4,39.9,35.5,32.7,86,71,57,30.20,30.07,19,3,19,0.00
2014-10-30,62.4,49.5,38.8,45.5,39.9,34.4,86,71,49,30.20,29.97,20,3,22,0.00
2014-10-31,48.8,36.5,27.5,39.2,23.6,18.4,73,60,43,30.49,30.20,25,6,25,0.00
2014-11-1,47.0,34.4,20.9,28.4,23.3,16.8,87,65,44,30.51,30.28,19,4,19,0.00
2014-11-2,59.0,48.3,37.5,37.5,32.2,27.4,69,54,40,30.28,29.97,27,9,27,0.00
2014-11-3,66.2,57.0,47.8,56.4,46.4,34.1,87,68,58,29.97,29.82,24,11,25,0.04
2014-11-4,60.2,48.4,42.3,56.0,39.8,35.6,86,73,51,30.09,29.84,20,7,20,0.00
2014-11-5,60.6,49.3,39.7,46.9,39.5,34.2,87,70,44,30.10,29.90,29,8,29,0.12
2014-11-6,48.4,41.0,28.8,38.2,31.9,24.6,84,70,53,30.30,29.96,30,7,30,0.00
2014-11-7,55.3,43.3,28.3,40.0,33.2,24.7,91,69,47,30.27,29.75,27,7,27,0.00
2014-11-8,51.0,42.1,35.5,43.7,31.4,27.2,78,66,53,30.11,29.80,31,8,32,0.00
2014-11-9,55.7,46.6,38.3,40.9,35.8,30.2,75,66,53,29.95,29.67,19,5,19,0.00
2014-11-10,65.7,50.4,33.4,49.4,40.9,28.8,84,71,54,29.76,29.32,29,8,29,0.00
2014-11-11,32.9,27.2,22.9,28.0,20.4,12.6,85,75,63,30.37,29.75,23,10,26,0.00
2014-11-12,24.6,22.1,20.3,16.4,13.5,10.6,83,69,59,30.47,30.36,21,6,21,0.00
2014-11-13,26.9,24.3,19.8,18.2,16.7,13.2,84,73,59,30.50,30.44,17,6,19,0.00
2014-11-14,29.3,20.2,11.2,15.7,11.2,6.6,84,69,48,30.49,30.38,9,2,13,0.00
2014-11-15,29.2,23.9,17.9,23.8,18.0,11.9,90,78,61,30.39,30.17,12,2,13,0.00
2014-11-16,26.6,20.3,15.3,24.3,14.9,8.1,91,79,64,30.18,30.04,18,6,18,0.02
2014-11-17,19.1,15.0,11.4,11.2,7.7,4.4,81,72,62,30.23,30.04,28,7,28,0.01
2014-11-18,26.7,17.7,9.4,19.1,10.0,3.6,78,71,59,30.26,29.86,20,7,20,0.00
2014-11-19,29.6,25.4,20.7,22.4,17.3,13.3,78,71,64,30.16,29.81,27,7,27,0.00
2014-11-20,29.8,21.7,12.0,17.8,13.2,6.8,81,70,56,30.37,30.15,16,3,16,0.00
2014-11-21,37.6,28.4,11.7,30.4,20.1,6.8,83,71,55,30.38,30.07,18,6,18,0.00
2014-11-22,53.8,46.1,35.1,51.8,43.6,30.4,95,91,83,30.07,29.64,21,8,25,0.01
2014-11-23,53.7,48.7,34.4,51.9,46.9,32.0,96,93,89,29.65,29.29,32,7,32,0.45
2014-11-24,34.6,28.4,24.7,32.5,22.7,17.6,92,79,72,30.00,29.31,24,9,28,0.01
2014-11-25,35.2,26.4,17.4,20.6,17.0,12.9,88,68,45,30.19,30.00,20,4,20,0.01
2014-11-26,31.0,29.3,24.7,29.2,25.8,20.1,93,87,70,30.39,29.92,18,6,18,0.01
2014-11-27,24.4,13.0,4.9,22.4,6.4,-0.5,92,75,56,30.58,30.34,21,4,21,0.02
2014-11-28,43.7,29.2,13.4,33.8,23.6,6.6,89,79,67,30.35,29.67,23,6,23,0.05
2014-11-29,56.9,44.2,31.5,48.6,39.5,28.6,94,84,71,29.67,29.48,22,6,22,0.00
2014-11-30,40.6,21.6,13.6,36.9,15.3,5.1,90,76,65,30.53,29.55,31,9,31,0.00
2014-12-1,18.2,13.6,9.4,4.9,3.1,0.7,77,63,48,30.79,30.52,20,4,20,0.00
2014-12-2,34.7,22.3,10.0,23.9,15.6,4.2,85,75,63,30.56,30.06,21,5,21,0.00
2014-12-3,35.7,27.0,20.3,22.6,17.5,14.7,82,68,47,30.41,30.12,18,3,18,0.00
2014-12-4,33.8,29.0,21.6,28.5,21.2,15.6,86,73,62,30.37,30.16,14,3,14,0.00
2014-12-5,40.6,35.5,32.0,37.5,33.0,28.5,94,91,86,30.34,30.13,11,2,11,0.00
2014-12-6,41.9,33.9,27.8,31.7,28.6,23.6,93,81,59,30.60,30.34,14,3,14,0.00
2014-12-7,38.2,32.5,27.3,32.5,29.2,24.5,93,88,77,30.59,30.18,14,5,16,0.00
2014-12-8,45.2,37.8,29.5,37.7,32.6,23.4,93,82,65,30.29,30.08,26,7,26,0.00
2014-12-9,35.3,27.8,23.1,26.5,22.2,18.5,89,80,68,30.48,30.29,20,3,20,0.00
2014-12-10,33.6,29.7,23.8,28.3,26.0,21.0,94,86,79,30.42,30.30,12,2,12,0.00
2014-12-11,33.2,30.5,28.2,29.4,27.5,24.8,91,88,85,30.33,30.26,9,2,10,0.00
2014-12-12,48.0,36.6,30.4,40.5,33.4,28.1,97,88,75,30.32,30.20,8,2,10,0.00
2014-12-13,55.0,46.9,33.5,49.3,44.5,32.5,98,92,80,30.20,29.98,17,6,19,0.00
2014-12-14,55.7,51.7,49.2,52.0,49.5,47.2,96,92,86,29.99,29.80,16,6,16,0.00
2014-12-15,50.5,48.2,38.1,48.7,46.8,35.9,98,95,91,29.80,29.52,26,4,29,0.16
2014-12-16,38.0,25.4,16.3,36.2,21.2,11.8,93,84,77,30.35,29.72,23,9,27,0.00
2014-12-17,27.0,19.4,14.5,18.9,14.7,10.7,90,82,69,30.40,30.32,17,2,17,0.00
2014-12-18,27.2,23.2,16.4,23.4,20.2,14.0,92,88,82,30.35,30.27,7,0,7,0.00
2014-12-19,30.7,28.5,25.8,28.1,26.1,23.3,92,90,89,30.33,30.22,13,2,13,0.00
2014-12-20,35.6,32.6,29.9,34.7,31.7,28.0,97,96,92,30.23,30.11,12,3,12,0.03
2014-12-21,41.6,39.4,35.6,39.2,37.3,34.8,97,92,89,30.11,29.78,27,10,27,0.00
2014-12-22,40.9,38.7,37.7,38.8,37.3,36.1,98,95,91,29.78,29.41,17,5,17,0.44
2014-12-23,40.1,37.2,33.1,39.6,35.6,31.9,98,94,90,29.80,29.41,20,6,20,0.10
2014-12-24,35.6,33.6,31.0,33.0,31.5,28.5,97,92,85,29.78,29.69,20,6,20,0.03
2014-12-25,46.4,36.7,30.9,34.9,30.8,28.4,92,80,59,29.82,29.75,23,9,23,0.00
2014-12-26,41.1,36.7,34.1,34.7,32.5,30.5,95,85,73,29.99,29.79,14,3,14,0.00
2014-12-27,34.4,28.5,19.2,33.3,25.3,16.9,96,88,78,30.25,29.92,19,4,20,0.06
2014-12-28,36.1,25.1,15.7,26.0,20.5,13.4,94,83,64,30.26,30.16,12,2,12,0.00
2014-12-29,27.2,21.7,7.7,23.6,17.3,2.1,92,83,67,30.69,30.26,19,6,19,0.00
2014-12-30,14.7,7.8,2.7,3.3,-0.5,-4.8,80,69,51,30.91,30.68,16,5,16,0.00
2014-12-31,23.2,11.6,0.8,10.0,2.8,-5.6,79,68,52,30.80,30.26,28,10,28,0.00
2015-1-1,38.7,24.2,14.3,22.7,15.3,7.7,79,69,51,30.26,30.05,20,8,20,0.00
2015-1-2,35.1,26.6,15.7,26.3,20.2,12.0,92,77,63,30.31,30.06,10,1,10,0.00